Middlebury State AP, Middlebu, VT

7:23 AM EST on November 17, 2019 (GMT -0500)
Middlebury State AP, Middlebu

Weather History for K6B0 - June, 2019

Change the Weather History Date:

Thursday, June 13, 2019

  Actual Average (KRUT) Record (KRUT)
Temperature  
Mean Temperature 58 °F -  
Max Temperature 63 °F 77 °F 92 °F (1983)
Min Temperature 53 °F 51 °F 39 °F (1979)
Degree Days  
Heating Degree Days 7    
Growing Degree Days 8 (Base 50)    
Moisture  
Dew Point 46 °F    
Average Humidity 67    
Maximum Humidity 81    
Minimum Humidity 48    
Precipitation  
Precipitation 0.00 in - - ()
Sea Level Pressure  
Sea Level Pressure 29.88 in    
Wind  
Wind Speed 6 mph (SSE)    
Max Wind Speed 20 mph    
Max Gust Speed 39 mph    
Visibility 10 miles    
Events Rain    
Averages and records for this station are not official NWS values.
T = Trace of Precipitation, MM = Missing Value Source: NWS Daily Summary

Daily Weather History Graph

Daily Weather History Graph

Search for Another Location

Airport or City:

Astronomy

Jun. 13, 2019 Rise Set
Actual Time 5:09 AM EDT 8:36 PM EDT
Civil Twilight 4:32 AM EDT 9:12 PM EDT
Nautical Twilight 3:45 AM EDT 9:59 PM EDT
Astronomical Twilight 2:45 AM EDT 10:59 PM EDT
Moon 4:39 PM EDT (6/13) 3:02 AM EDT (6/13)
Length of Visible Light 16h 39m
Length of Day
15h 26m
Waxing Gibbous, 85% of the Moon is Illuminated
Jun 13
Waxing Gibbous
Jun 17
Full
Jun 25
Last Quarter
Jul 2
New
Jul 9
First Quarter

Hourly Weather History & Observations

Time (EDT) Temp. Dew Point Humidity Pressure Visibility Wind Dir Wind Speed Gust Speed Precip Events Conditions
12:15 AM 63.5 °F 48.4 °F 58% 30.07 in 10.0 mi SSE 3.5 mph - N/A   Clear
12:16 AM 63.5 °F 48.6 °F 58% 30.07 in 10.0 mi SE 3.5 mph - N/A   Clear
12:35 AM 63.7 °F 48.4 °F 57% 30.06 in 10.0 mi SSE 8.1 mph - N/A   Clear
12:36 AM 63.7 °F 48.4 °F 57% 30.06 in 10.0 mi SSE 9.2 mph - N/A   Clear
12:58 AM 63.1 °F 48.4 °F 59% 30.06 in 10.0 mi SSE 5.8 mph - N/A   Clear
1:16 AM 62.6 °F 48.2 °F 59% 30.05 in 10.0 mi SSE 5.8 mph - N/A   Clear
1:35 AM 61.9 °F 48.6 °F 62% 30.06 in 10.0 mi SSE 6.9 mph - N/A   Clear
1:36 AM 61.9 °F 48.4 °F 61% 30.06 in 10.0 mi SSE 6.9 mph - N/A   Clear
1:55 AM 61.9 °F 47.8 °F 60% 30.05 in 10.0 mi SE 5.8 mph - N/A   Clear
1:56 AM 61.9 °F 47.8 °F 60% 30.04 in 10.0 mi SE 4.6 mph - N/A   Clear
2:18 AM 60.1 °F 49.3 °F 67% 30.03 in 10.0 mi SSE 3.5 mph - N/A   Clear
2:35 AM 57.4 °F 50.0 °F 76% 30.02 in 10.0 mi SE 3.5 mph - N/A   Clear
2:55 AM 57.7 °F 49.5 °F 74% 30.02 in 10.0 mi SSE 3.5 mph - N/A   Clear
2:56 AM 57.7 °F 49.5 °F 74% 30.02 in 10.0 mi SSE 3.5 mph - N/A   Clear
3:15 AM 55.4 °F 49.5 °F 80% 30.02 in 10.0 mi SSE 3.5 mph - N/A   Clear
3:16 AM 55.4 °F 49.5 °F 80% 30.02 in 10.0 mi Calm Calm - N/A   Clear
3:39 AM 56.1 °F 49.5 °F 78% 30.02 in 10.0 mi South 3.5 mph - N/A   Clear
3:57 AM 55.2 °F 49.5 °F 81% 30.02 in 10.0 mi SSE 3.5 mph - N/A   Clear
4:15 AM 56.3 °F 48.9 °F 76% 30.00 in 10.0 mi South 5.8 mph - N/A   Clear
4:16 AM 56.1 °F 48.7 °F 76% 30.00 in 10.0 mi South 5.8 mph - N/A   Clear
4:35 AM 56.5 °F 48.4 °F 74% 30.00 in 10.0 mi South 4.6 mph - N/A   Clear
4:36 AM 56.3 °F 48.4 °F 75% 30.00 in 10.0 mi South 5.8 mph - N/A   Clear
4:55 AM 55.2 °F 48.6 °F 78% 29.99 in 10.0 mi South 5.8 mph - N/A   Clear
4:59 AM 55.4 °F 48.9 °F 79% 29.99 in 10.0 mi South 5.8 mph - N/A   Clear
5:17 AM 54.5 °F 48.2 °F 79% 29.99 in 10.0 mi South 4.6 mph - N/A   Clear
5:35 AM 54.3 °F 48.7 °F 81% 29.99 in 10.0 mi South 3.5 mph - N/A   Clear
5:55 AM 54.5 °F 48.9 °F 81% 29.99 in 10.0 mi South 6.9 mph - N/A   Clear
5:56 AM 54.5 °F 48.9 °F 81% 29.99 in 10.0 mi South 5.8 mph - N/A   Clear
6:15 AM 54.9 °F 49.1 °F 81% 29.99 in 10.0 mi South 3.5 mph - N/A   Clear
6:16 AM 54.9 °F 49.1 °F 81% 29.99 in 10.0 mi South 4.6 mph - N/A   Clear
6:38 AM 55.9 °F 49.1 °F 78% 29.99 in 10.0 mi Calm Calm - N/A   Clear
6:57 AM 58.6 °F 45.5 °F 62% 29.97 in 10.0 mi SE 3.5 mph - N/A   Clear
7:15 AM 58.6 °F 45.5 °F 62% 29.97 in 10.0 mi SSE 3.5 mph - N/A   Clear
7:35 AM 58.5 °F 45.1 °F 61% 29.98 in 10.0 mi South 3.5 mph - N/A   Clear
7:36 AM 58.5 °F 45.1 °F 61% 29.98 in 10.0 mi SSE 3.5 mph - N/A   Clear
7:55 AM 58.5 °F 44.1 °F 59% 29.98 in 10.0 mi SSE 4.6 mph - N/A   Clear
7:59 AM 58.5 °F 43.9 °F 58% 29.98 in 10.0 mi SSE 5.8 mph - N/A   Clear
8:17 AM 59.0 °F 42.8 °F 55% 29.97 in 10.0 mi SSW 5.8 mph - N/A   Clear
8:55 AM 58.8 °F 42.8 °F 55% 29.96 in 10.0 mi SE 6.9 mph - N/A   Clear
8:56 AM 58.8 °F 42.8 °F 55% 29.96 in 10.0 mi SE 6.9 mph - N/A   Clear
9:15 AM 59.0 °F 43.0 °F 55% 29.95 in 10.0 mi SE 6.9 mph 18.4 mph N/A   Scattered Clouds
9:16 AM 59.0 °F 43.0 °F 55% 29.95 in 10.0 mi SE 8.1 mph 16.1 mph N/A   Scattered Clouds
9:38 AM 59.0 °F 43.9 °F 57% 29.95 in 10.0 mi SSE 8.1 mph - N/A   Overcast
9:56 AM 59.4 °F 42.8 °F 54% 29.95 in 10.0 mi SE 8.1 mph - N/A   Mostly Cloudy
10:15 AM 59.9 °F 42.1 °F 52% 29.95 in 10.0 mi SE 8.1 mph - N/A   Scattered Clouds
10:35 AM 59.9 °F 40.3 °F 48% 29.95 in 10.0 mi SE 6.9 mph - N/A   Scattered Clouds
10:55 AM 59.4 °F 41.4 °F 51% 29.94 in 10.0 mi SSE 6.9 mph - N/A   Mostly Cloudy
11:18 AM 59.9 °F 41.7 °F 51% 29.93 in 10.0 mi South 8.1 mph - N/A   Overcast
11:35 AM 59.9 °F 40.1 °F 48% 29.92 in 10.0 mi SSE 9.2 mph - N/A   Overcast
11:55 AM 59.2 °F 41.2 °F 51% 29.91 in 10.0 mi SSE 13.8 mph 26.5 mph N/A   Light Drizzle
11:56 AM 59.0 °F 41.2 °F 52% 29.91 in 10.0 mi SSE 13.8 mph 26.5 mph N/A   Light Drizzle
12:16 PM 56.3 °F 43.3 °F 62% 29.91 in 10.0 mi SSE 9.2 mph 26.5 mph N/A Rain Light Rain
12:38 PM 55.4 °F 45.5 °F 69% 29.89 in 10.0 mi ESE 10.4 mph 23.0 mph N/A Rain Light Rain
12:56 PM 53.8 °F 46.2 °F 76% 29.87 in 10.0 mi ESE 11.5 mph 26.5 mph N/A Rain Light Rain
1:16 PM 53.6 °F 45.3 °F 74% 29.82 in 10.0 mi SE 16.1 mph 26.5 mph N/A Rain Light Rain
1:35 PM 54.0 °F 42.8 °F 66% 29.80 in 10.0 mi ESE 15.0 mph 39.1 mph N/A   Scattered Clouds
1:36 PM 54.1 °F 42.8 °F 66% 29.80 in 10.0 mi ESE 19.6 mph 39.1 mph N/A   Scattered Clouds
1:55 PM 56.1 °F 43.5 °F 63% 29.82 in 10.0 mi SE 10.4 mph 33.4 mph N/A   Clear
2:00 PM 56.1 °F 42.4 °F 60% 29.81 in 10.0 mi South 18.4 mph 33.4 mph N/A   Clear
2:18 PM 56.3 °F 42.3 °F 59% 29.82 in 10.0 mi SE 8.1 mph 18.4 mph N/A   Scattered Clouds
2:36 PM 57.6 °F 43.0 °F 58% 29.83 in 10.0 mi SSE 12.7 mph 25.3 mph N/A   Overcast
2:55 PM 57.6 °F 44.8 °F 62% 29.82 in 10.0 mi South 12.7 mph 26.5 mph N/A   Overcast
2:56 PM 57.6 °F 44.8 °F 62% 29.81 in 10.0 mi South 11.5 mph 26.5 mph N/A   Overcast
3:15 PM 58.5 °F 45.5 °F 62% 29.81 in 10.0 mi SE 8.1 mph 19.6 mph N/A   Overcast
3:16 PM 58.3 °F 45.5 °F 62% 29.81 in 10.0 mi SSE 5.8 mph 19.6 mph N/A   Overcast
3:38 PM 58.3 °F 45.3 °F 62% 29.78 in 10.0 mi SSE 11.5 mph 24.2 mph N/A   Mostly Cloudy
3:56 PM 59.4 °F 45.0 °F 59% 29.77 in 10.0 mi SE 12.7 mph 24.2 mph N/A   Scattered Clouds
4:16 PM 58.6 °F 45.1 °F 61% 29.76 in 10.0 mi SE 10.4 mph 23.0 mph N/A   Mostly Cloudy
4:35 PM 58.5 °F 45.5 °F 62% 29.76 in 10.0 mi SE 12.7 mph 23.0 mph N/A   Overcast
4:36 PM 58.5 °F 45.5 °F 62% 29.76 in 10.0 mi SE 10.4 mph 23.0 mph N/A   Overcast
4:55 PM 57.4 °F 45.7 °F 65% 29.76 in 10.0 mi SE 13.8 mph 21.9 mph N/A   Overcast
4:59 PM 57.2 °F 45.5 °F 65% 29.76 in 10.0 mi SE 8.1 mph 21.9 mph N/A   Overcast
5:17 PM 56.8 °F 45.9 °F 67% 29.75 in 10.0 mi ESE 10.4 mph 19.6 mph N/A   Overcast
5:36 PM 56.8 °F 46.0 °F 67% 29.75 in 10.0 mi ESE 10.4 mph 18.4 mph N/A   Overcast
5:55 PM 56.7 °F 46.4 °F 69% 29.76 in 10.0 mi ESE 6.9 mph - N/A   Overcast
5:56 PM 56.5 °F 46.4 °F 69% 29.76 in 10.0 mi ESE 8.1 mph - N/A   Overcast
6:15 PM 56.5 °F 46.4 °F 69% 29.76 in 10.0 mi SE 9.2 mph - N/A   Overcast
6:38 PM 56.3 °F 46.4 °F 69% 29.75 in 10.0 mi SE 6.9 mph 16.1 mph N/A   Overcast
6:56 PM 56.3 °F 46.4 °F 69% 29.76 in 10.0 mi SE 6.9 mph - N/A   Overcast
7:16 PM 56.3 °F 46.6 °F 70% 29.75 in 10.0 mi SSE 8.1 mph - N/A   Overcast
7:35 PM 55.9 °F 46.4 °F 70% 29.74 in 10.0 mi SE 6.9 mph - N/A   Overcast
7:36 PM 55.9 °F 46.4 °F 70% 29.74 in 10.0 mi SE 6.9 mph - N/A   Overcast
7:55 PM 55.8 °F 46.6 °F 71% 29.74 in 10.0 mi ESE 6.9 mph - N/A   Overcast
7:59 PM 55.6 °F 46.6 °F 72% 29.74 in 10.0 mi SE 5.8 mph - N/A   Overcast
8:17 PM 55.4 °F 46.9 °F 73% 29.75 in 10.0 mi SSE 3.5 mph - N/A   Overcast
8:35 PM 55.4 °F 47.3 °F 74% 29.75 in 10.0 mi SSE 3.5 mph - N/A Rain Rain
8:55 PM 54.9 °F 47.3 °F 76% 29.74 in 10.0 mi SE 3.5 mph - N/A   Overcast
9:15 PM 54.7 °F 47.3 °F 76% 29.73 in 10.0 mi SE 4.6 mph - N/A   Light Drizzle
9:16 PM 54.7 °F 47.3 °F 76% 29.73 in 10.0 mi SE 3.5 mph - N/A   Mostly Cloudy
9:38 PM 54.5 °F 47.3 °F 77% 29.72 in 10.0 mi SE 4.6 mph - N/A   Light Drizzle
9:56 PM 54.1 °F 47.3 °F 78% 29.73 in 10.0 mi South 4.6 mph - N/A   Mostly Cloudy
10:16 PM 54.0 °F 48.2 °F 81% 29.74 in 10.0 mi Calm Calm - N/A   Overcast
10:35 PM 54.5 °F 47.8 °F 78% 29.73 in 10.0 mi South 3.5 mph - N/A   Overcast
10:36 PM 54.5 °F 47.7 °F 78% 29.73 in 10.0 mi SE 3.5 mph - N/A   Overcast
10:55 PM 54.9 °F 47.7 °F 77% 29.72 in 10.0 mi SE 4.6 mph - N/A   Overcast
10:59 PM 54.9 °F 47.5 °F 76% 29.72 in 10.0 mi SSE 3.5 mph - N/A   Overcast
11:17 PM 54.9 °F 48.0 °F 78% 29.72 in 10.0 mi South 3.5 mph - N/A   Overcast
11:35 PM 54.5 °F 48.4 °F 80% 29.71 in 10.0 mi South 4.6 mph - N/A   Overcast
11:55 PM 54.7 °F 48.4 °F 79% 29.70 in 10.0 mi SSE 3.5 mph - N/A   Overcast
11:56 PM 54.7 °F 48.4 °F 79% 29.70 in 10.0 mi SSE 3.5 mph - N/A   Overcast